DF1NIF-13 Weather Reports


time (UTC)temp
F
wind
direction
speed
knots
gust
knots
rain 1hr
in
rain 24hr
in
rain mn
in
humidity
%
barometer
mb
20240418175956 45 0 0.0 0.0 0.00 0.00 0.00 10 543.2
20240418175521 45 0 0.0 0.0 0.00 0.00 0.00 10 543.3
20240418175109 45 0 0.0 0.0 0.00 0.00 0.00 10 543.3
20240418174651 46 0 0.0 0.0 0.00 0.00 0.00 10 543.5
20240418174226 46 0 0.0 0.0 0.00 0.00 0.00 10 543.3
20240418173751 46 0 0.0 0.0 0.00 0.00 0.00 10 543.3
20240418173306 47 0 0.0 0.0 0.00 0.00 0.00 10 543.4
20240418172826 47 0 0.0 0.0 0.00 0.00 0.00 10 543.4
20240418172349 47 0 0.0 0.0 0.00 0.00 0.00 10 543.5
20240418171930 47 0 0.0 0.0 0.00 0.00 0.00 10 543.4
20240418171511 47 0 0.0 0.0 0.00 0.00 0.00 10 543.4
20240418171026 54 0 0.0 0.0 0.00 0.00 0.00 99 542.7
20240418170556 55 0 0.0 0.0 0.00 0.00 0.00 10 542.9
20240418170136 50 0 0.0 0.0 0.00 0.00 0.00 10 543.0
20240418165721 50 0 0.0 0.0 0.00 0.00 0.00 10 543.0
20240418165241 49 0 0.0 0.0 0.00 0.00 0.00 10 543.3
20240418164806 51 0 0.0 0.0 0.00 0.00 0.00 96 543.5
20240418164336 53 0 0.0 0.0 0.00 0.00 0.00 94 543.1
20240418163849 55 0 0.0 0.0 0.00 0.00 0.00 94 543.3
20240418163411 59 0 0.0 0.0 0.00 0.00 0.00 94 543.3
20240418162940 58 0 0.0 0.0 0.00 0.00 0.00 94 543.6
20240418162516 58 0 0.0 0.0 0.00 0.00 0.00 93 543.6
20240418162041 60 0 0.0 0.0 0.00 0.00 0.00 96 543.7
20240418161611 59 0 0.0 0.0 0.00 0.00 0.00 99 543.5
20240418161201 54 0 0.0 0.0 0.00 0.00 0.00 10 543.7
20240418160709 55 0 0.0 0.0 0.00 0.00 0.00 10 543.8
20240418160301 55 0 0.0 0.0 0.00 0.00 0.00 10 543.7
20240418155813 54 0 0.0 0.0 0.00 0.00 0.00 10 543.8
20240418155356 54 0 0.0 0.0 0.00 0.00 0.00 10 543.8
20240418154926 54 0 0.0 0.0 0.00 0.00 0.00 10 543.9
20240418154446 53 0 0.0 0.0 0.00 0.00 0.00 10 543.8
20240418154006 49 0 0.0 0.0 0.00 0.00 0.00 10 543.8
20240418153536 52 0 0.0 0.0 0.00 0.00 0.00 10 544.2
20240418153106 47 0 0.0 0.0 0.00 0.00 0.00 10 543.7
20240418152631 47 0 0.0 0.0 0.00 0.00 0.00 10 543.8
20240418152213 47 0 0.0 0.0 0.00 0.00 0.00 10 543.8
20240418151749 49 0 0.0 0.0 0.00 0.00 0.00 10 543.6
20240418151321 50 0 0.0 0.0 0.00 0.00 0.00 10 543.6
20240418150841 50 0 0.0 0.0 0.00 0.00 0.00 10 543.6
20240418150436 50 0 0.0 0.0 0.00 0.00 0.00 10 543.6
20240418145958 53 0 0.0 0.0 0.00 0.00 0.00 10 543.9
20240418145531 53 0 0.0 0.0 0.00 0.00 0.00 10 543.8
20240418145056 57 0 0.0 0.0 0.00 0.00 0.00 10 544.6
20240418144621 52 0 0.0 0.0 0.00 0.00 0.00 10 544.5
20240418144140 53 0 0.0 0.0 0.00 0.00 0.00 10 544.6
20240418143716 57 0 0.0 0.0 0.00 0.00 0.00 10 544.6
20240418143300 56 0 0.0 0.0 0.00 0.00 0.00 10 544.5
20240418142829 57 0 0.0 0.0 0.00 0.00 0.00 10 544.6
20240418142401 57 0 0.0 0.0 0.00 0.00 0.00 10 544.6
20240418141921 52 0 0.0 0.0 0.00 0.00 0.00 10 544.6
20240418141516 46 0 0.0 0.0 0.00 0.00 0.00 10 543.8
20240418141021 46 0 0.0 0.0 0.00 0.00 0.00 10 543.8
20240418140541 0 0 0.0 0.0 0.00 0.00 0.00 10
20240418140115 49 0 0.0 0.0 0.00 0.00 0.00 10 543.8
20240418135706 49 0 0.0 0.0 0.00 0.00 0.00 10 543.7
20240418135231 50 0 0.0 0.0 0.00 0.00 0.00 10 544.0
20240418134821 53 0 0.0 0.0 0.00 0.00 0.00 97 544.5
20240418134351 54 0 0.0 0.0 0.00 0.00 0.00 95 544.0
20240418133916 53 0 0.0 0.0 0.00 0.00 0.00 10 544.0
20240418133441 53 0 0.0 0.0 0.00 0.00 0.00 10 543.8
20240418133026 51 0 0.0 0.0 0.00 0.00 0.00 10 544.1
20240418132621 51 0 0.0 0.0 0.00 0.00 0.00 10 544.1
20240418132146 54 0 0.0 0.0 0.00 0.00 0.00 10 545.3
20240418131711 53 0 0.0 0.0 0.00 0.00 0.00 10 544.0
20240418131226 55 0 0.0 0.0 0.00 0.00 0.00 10 545.0
20240418130741 53 0 0.0 0.0 0.00 0.00 0.00 10 545.1
20240418130306 50 0 0.0 0.0 0.00 0.00 0.00 10 545.0
20240418125856 50 0 0.0 0.0 0.00 0.00 0.00 10 545.1
20240418125416 46 0 0.0 0.0 0.00 0.00 0.00 10 543.8
20240418124941 44 0 0.0 0.0 0.00 0.00 0.00 10 543.9
20240418124449 44 0 0.0 0.0 0.00 0.00 0.00 10 543.9
20240418124041 44 0 0.0 0.0 0.00 0.00 0.00 10 543.6
20240418123610 45 0 0.0 0.0 0.00 0.00 0.00 10 543.5
20240418123116 49 0 0.0 0.0 0.00 0.00 0.00 10 543.7
20240418122631 52 0 0.0 0.0 0.00 0.00 0.00 10 544.2
20240418122159 53 0 0.0 0.0 0.00 0.00 0.00 10 544.1
20240418121746 53 0 0.0 0.0 0.00 0.00 0.00 10 544.9
20240418121331 56 0 0.0 0.0 0.00 0.00 0.00 10 544.9
20240418120851 55 0 0.0 0.0 0.00 0.00 0.00 10 545.1
20240418120421 52 0 0.0 0.0 0.00 0.00 0.00 10 545.1
20240418115941 51 0 0.0 0.0 0.00 0.00 0.00 10 545.3
20240418115521 50 0 0.0 0.0 0.00 0.00 0.00 10 544.7
20240418115031 50 0 0.0 0.0 0.00 0.00 0.00 10 545.1
20240418114601 45 0 0.0 0.0 0.00 0.00 0.00 10 544.5
20240418114141 44 0 0.0 0.0 0.00 0.00 0.00 10 544.4
20240418113709 44 0 0.0 0.0 0.00 0.00 0.00 10 544.0
20240418113226 45 0 0.0 0.0 0.00 0.00 0.00 10 544.2
20240418112801 46 0 0.0 0.0 0.00 0.00 0.00 10 545.2
20240418112311 42 0 0.0 0.0 0.00 0.00 0.00 10 544.0
20240418111846 42 0 0.0 0.0 0.00 0.00 0.00 10 544.0
20240418111416 43 0 0.0 0.0 0.00 0.00 0.00 10 544.2
20240418110949 42 0 0.0 0.0 0.00 0.00 0.00 10 544.2
20240418110526 41 0 0.0 0.0 0.00 0.00 0.00 10 544.2
20240418110051 41 0 0.0 0.0 0.00 0.00 0.00 10 543.7
20240418105631 41 0 0.0 0.0 0.00 0.00 0.00 10 543.8
20240418105221 41 0 0.0 0.0 0.00 0.00 0.00 10 543.8
20240418104801 41 0 0.0 0.0 0.00 0.00 0.00 10 543.6
20240418104331 41 0 0.0 0.0 0.00 0.00 0.00 10 543.4
20240418103901 46 0 0.0 0.0 0.00 0.00 0.00 10 544.1
20240418103414 50 0 0.0 0.0 0.00 0.00 0.00 10 544.2
20240418102956 49 0 0.0 0.0 0.00 0.00 0.00 10 545.6
20240418102509 48 0 0.0 0.0 0.00 0.00 0.00 10 545.7
20240418102056 48 0 0.0 0.0 0.00 0.00 0.00 10 545.7
20240418101626 50 0 0.0 0.0 0.00 0.00 0.00 10 545.6
20240418101206 50 0 0.0 0.0 0.00 0.00 0.00 10 544.5
20240418100746 51 0 0.0 0.0 0.00 0.00 0.00 10 545.8
20240418100326 49 0 0.0 0.0 0.00 0.00 0.00 10 545.8
20240418095846 49 0 0.0 0.0 0.00 0.00 0.00 10 545.9
20240418095436 49 0 0.0 0.0 0.00 0.00 0.00 10 545.9
20240418095006 48 0 0.0 0.0 0.00 0.00 0.00 10 546.1
20240418094539 49 0 0.0 0.0 0.00 0.00 0.00 10 546.2
20240418094106 47 0 0.0 0.0 0.00 0.00 0.00 10 544.5
20240418093641 49 0 0.0 0.0 0.00 0.00 0.00 10 546.3
20240418093151 44 0 0.0 0.0 0.00 0.00 0.00 10 544.7
20240418092701 44 0 0.0 0.0 0.00 0.00 0.00 10 544.3
20240418092241 44 0 0.0 0.0 0.00 0.00 0.00 10 544.3
20240418091821 44 0 0.0 0.0 0.00 0.00 0.00 10 545.1
20240418091401 44 0 0.0 0.0 0.00 0.00 0.00 10 544.9
20240418090941 43 0 0.0 0.0 0.00 0.00 0.00 10 544.9
20240418090456 44 0 0.0 0.0 0.00 0.00 0.00 10 545.3
20240418090036 44 0 0.0 0.0 0.00 0.00 0.00 10 544.7
20240418085551 44 0 0.0 0.0 0.00 0.00 0.00 10 544.7
20240418085126 43 0 0.0 0.0 0.00 0.00 0.00 10 544.5
20240418084701 42 0 0.0 0.0 0.00 0.00 0.00 10 545.1
20240418084236 42 0 0.0 0.0 0.00 0.00 0.00 10 544.6
20240418083801 41 0 0.0 0.0 0.00 0.00 0.00 10 544.7
20240418083331 41 0 0.0 0.0 0.00 0.00 0.00 10 543.9
20240418082836 40 0 0.0 0.0 0.00 0.00 0.00 10 543.9
20240418082416 40 0 0.0 0.0 0.00 0.00 0.00 10 543.8
20240418081941 39 0 0.0 0.0 0.00 0.00 0.00 10 543.7
20240418081521 39 0 0.0 0.0 0.00 0.00 0.00 10 543.9
20240418081106 40 0 0.0 0.0 0.00 0.00 0.00 10 543.7
20240418080616 39 0 0.0 0.0 0.00 0.00 0.00 10 543.6
20240418080201 39 0 0.0 0.0 0.00 0.00 0.00 10 543.7
20240418075706 39 0 0.0 0.0 0.00 0.00 0.00 10 543.7
20240418075241 39 0 0.0 0.0 0.00 0.00 0.00 10 543.7
20240418074821 39 0 0.0 0.0 0.00 0.00 0.00 10 543.6
20240418074336 39 0 0.0 0.0 0.00 0.00 0.00 10 543.5
20240418073856 39 0 0.0 0.0 0.00 0.00 0.00 10 543.5
20240418073441 40 0 0.0 0.0 0.00 0.00 0.00 10 543.6
20240418073001 40 0 0.0 0.0 0.00 0.00 0.00 10 543.6
20240418072546 40 0 0.0 0.0 0.00 0.00 0.00 10 543.7
20240418072110 39 0 0.0 0.0 0.00 0.00 0.00 10 543.7
20240418071619 40 0 0.0 0.0 0.00 0.00 0.00 10 543.7
20240418071121 41 0 0.0 0.0 0.00 0.00 0.00 10 543.6
20240418070656 40 0 0.0 0.0 0.00 0.00 0.00 10 543.4
20240418070237 39 0 0.0 0.0 0.00 0.00 0.00 10 543.7
20240418065806 39 0 0.0 0.0 0.00 0.00 0.00 10 543.7
20240418065321 39 0 0.0 0.0 0.00 0.00 0.00 10 543.6
20240418064836 39 0 0.0 0.0 0.00 0.00 0.00 10 543.6
20240418064349 39 0 0.0 0.0 0.00 0.00 0.00 10 543.6
20240418063929 38 0 0.0 0.0 0.00 0.00 0.00 10 543.4
20240418063449 39 0 0.0 0.0 0.00 0.00 0.00 10 543.4
20240418063001 38 0 0.0 0.0 0.00 0.00 0.00 10 543.4
20240418062519 38 0 0.0 0.0 0.00 0.00 0.00 10 543.4
20240418062106 38 0 0.0 0.0 0.00 0.00 0.00 10 543.3
20240418061656 38 0 0.0 0.0 0.00 0.00 0.00 10 543.2
20240418061221 38 0 0.0 0.0 0.00 0.00 0.00 10 543.2
20240418060806 38 0 0.0 0.0 0.00 0.00 0.00 10 543.3
20240418060321 38 0 0.0 0.0 0.00 0.00 0.00 10 543.4
20240418055900 38 0 0.0 0.0 0.00 0.00 0.00 10 543.6
20240418055426 38 0 0.0 0.0 0.00 0.00 0.00 10 543.6
20240418055001 38 0 0.0 0.0 0.00 0.00 0.00 10 543.4
20240418054511 38 0 0.0 0.0 0.00 0.00 0.00 10 543.3
20240418054036 37 0 0.0 0.0 0.00 0.00 0.00 10 543.4
20240418053611 37 0 0.0 0.0 0.00 0.00 0.00 10 543.2
20240418053131 37 0 0.0 0.0 0.00 0.00 0.00 10 543.1
20240418052651 36 0 0.0 0.0 0.00 0.00 0.00 10 543.1
20240418052216 36 0 0.0 0.0 0.00 0.00 0.00 10 543.2
20240418051801 36 0 0.0 0.0 0.00 0.00 0.00 10 543.1
20240418051301 36 0 0.0 0.0 0.00 0.00 0.00 10 543.0
20240418050816 36 0 0.0 0.0 0.00 0.00 0.00 10 543.0
20240418050336 36 0 0.0 0.0 0.00 0.00 0.00 10 543.1
20240418045851 36 0 0.0 0.0 0.00 0.00 0.00 10 543.1
20240418045351 36 0 0.0 0.0 0.00 0.00 0.00 10 543.1
20240418044926 36 0 0.0 0.0 0.00 0.00 0.00 10 543.2
20240418044446 36 0 0.0 0.0 0.00 0.00 0.00 10 543.1
20240418044001 36 0 0.0 0.0 0.00 0.00 0.00 10 543.1
20240418043551 36 0 0.0 0.0 0.00 0.00 0.00 10 543.0
20240418043141 36 0 0.0 0.0 0.00 0.00 0.00 10 543.0
20240418042656 37 0 0.0 0.0 0.00 0.00 0.00 10 543.1
20240418042221 37 0 0.0 0.0 0.00 0.00 0.00 10 543.1
20240418041726 37 0 0.0 0.0 0.00 0.00 0.00 10 543.0
20240418041256 37 0 0.0 0.0 0.00 0.00 0.00 10 543.1
20240418040841 37 0 0.0 0.0 0.00 0.00 0.00 10 543.1
20240418040406 37 0 0.0 0.0 0.00 0.00 0.00 10 543.2
20240418035946 37 0 0.0 0.0 0.00 0.00 0.00 10 543.2
20240418035501 37 0 0.0 0.0 0.00 0.00 0.00 10 543.0
20240418035056 36 0 0.0 0.0 0.00 0.00 0.00 10 543.1
20240418034626 36 0 0.0 0.0 0.00 0.00 0.00 10 543.2
20240418034156 36 0 0.0 0.0 0.00 0.00 0.00 10 543.0
20240418033726 36 0 0.0 0.0 0.00 0.00 0.00 10 543.1
20240418033306 36 0 0.0 0.0 0.00 0.00 0.00 10 543.0
20240418032821 36 0 0.0 0.0 0.00 0.00 0.00 10 543.1
20240418032336 36 0 0.0 0.0 0.00 0.00 0.00 10 543.0
20240418031916 36 0 0.0 0.0 0.00 0.00 0.00 10 543.0
20240418031456 36 0 0.0 0.0 0.00 0.00 0.00 10 543.1
20240418031046 36 0 0.0 0.0 0.00 0.00 0.00 10 543.1
20240418030616 36 0 0.0 0.0 0.00 0.00 0.00 10 543.2
20240418030146 36 0 0.0 0.0 0.00 0.00 0.00 10 543.2
20240418025716 36 0 0.0 0.0 0.00 0.00 0.00 10 543.0
20240418025306 36 0 0.0 0.0 0.00 0.00 0.00 10 543.1
20240418024831 36 0 0.0 0.0 0.00 0.00 0.00 10 543.1
20240418024336 36 0 0.0 0.0 0.00 0.00 0.00 10 543.2
20240418023906 36 0 0.0 0.0 0.00 0.00 0.00 10 543.1
20240418023451 36 0 0.0 0.0 0.00 0.00 0.00 10 543.0
20240418023011 36 0 0.0 0.0 0.00 0.00 0.00 10 543.0
20240418022516 36 0 0.0 0.0 0.00 0.00 0.00 10 543.0
20240418022051 36 0 0.0 0.0 0.00 0.00 0.00 10 543.0
20240418021559 36 0 0.0 0.0 0.00 0.00 0.00 10 543.1
20240418021131 35 0 0.0 0.0 0.00 0.00 0.00 10 543.1
20240418020706 35 0 0.0 0.0 0.00 0.00 0.00 10 543.0
20240418020256 35 0 0.0 0.0 0.00 0.00 0.00 10 543.1
20240418015836 35 0 0.0 0.0 0.00 0.00 0.00 10 543.2
20240418015346 35 0 0.0 0.0 0.00 0.00 0.00 10 543.1
20240418014931 35 0 0.0 0.0 0.00 0.00 0.00 10 543.1
20240418014501 35 0 0.0 0.0 0.00 0.00 0.00 10 543.0
20240418014006 35 0 0.0 0.0 0.00 0.00 0.00 10 543.0
20240418013541 35 0 0.0 0.0 0.00 0.00 0.00 10 543.0
20240418013131 35 0 0.0 0.0 0.00 0.00 0.00 10 543.0
20240418012646 35 0 0.0 0.0 0.00 0.00 0.00 10 542.9
20240418012231 35 0 0.0 0.0 0.00 0.00 0.00 10 543.1
20240418011806 35 0 0.0 0.0 0.00 0.00 0.00 10 543.0
20240418011336 35 0 0.0 0.0 0.00 0.00 0.00 10 543.2
20240418010846 35 0 0.0 0.0 0.00 0.00 0.00 10 543.1
20240418010436 35 0 0.0 0.0 0.00 0.00 0.00 10 543.0
20240418010006 35 0 0.0 0.0 0.00 0.00 0.00 10 543.0
20240418005531 35 0 0.0 0.0 0.00 0.00 0.00 10 543.1
20240418005052 35 0 0.0 0.0 0.00 0.00 0.00 10 543.1
20240418004616 35 0 0.0 0.0 0.00 0.00 0.00 10 543.0
20240418004153 35 0 0.0 0.0 0.00 0.00 0.00 10 543.1
20240418003726 36 0 0.0 0.0 0.00 0.00 0.00 10 543.1
20240418003306 36 0 0.0 0.0 0.00 0.00 0.00 10 543.0
20240418002811 36 0 0.0 0.0 0.00 0.00 0.00 10 543.2
20240418002356 36 0 0.0 0.0 0.00 0.00 0.00 10 543.0
20240418001932 36 0 0.0 0.0 0.00 0.00 0.00 10 543.0
20240418001439 36 0 0.0 0.0 0.00 0.00 0.00 10 542.8
20240418000946 35 0 0.0 0.0 0.00 0.00 0.00 10 543.0
20240418000456 35 0 0.0 0.0 0.00 0.00 0.00 10 542.9
20240418000026 35 0 0.0 0.0 0.00 0.00 0.00 10 543.0
20240417235615 35 0 0.0 0.0 0.00 0.00 0.00 10 543.1
20240417235141 35 0 0.0 0.0 0.00 0.00 0.00 10 543.1
20240417234706 35 0 0.0 0.0 0.00 0.00 0.00 10 542.8
20240417234226 35 0 0.0 0.0 0.00 0.00 0.00 10 542.9
20240417233816 35 0 0.0 0.0 0.00 0.00 0.00 10 543.1
20240417233346 36 0 0.0 0.0 0.00 0.00 0.00 10 542.9
20240417232906 36 0 0.0 0.0 0.00 0.00 0.00 10 543.0
20240417232441 36 0 0.0 0.0 0.00 0.00 0.00 10 543.0
20240417232001 37 0 0.0 0.0 0.00 0.00 0.00 10 542.9
20240417231531 37 0 0.0 0.0 0.00 0.00 0.00 10 543.1
20240417231052 37 0 0.0 0.0 0.00 0.00 0.00 10 543.1
20240417230636 37 0 0.0 0.0 0.00 0.00 0.00 10 543.1
20240417230106 37 0 0.0 0.0 0.00 0.00 0.00 10 542.9
20240417225701 37 0 0.0 0.0 0.00 0.00 0.00 10 542.9
20240417225226 37 0 0.0 0.0 0.00 0.00 0.00 10 543.1
20240417224746 37 0 0.0 0.0 0.00 0.00 0.00 10 543.0
20240417224311 37 0 0.0 0.0 0.00 0.00 0.00 10 543.1
20240417223836 37 0 0.0 0.0 0.00 0.00 0.00 10 543.1
20240417223401 37 0 0.0 0.0 0.00 0.00 0.00 10 542.9
20240417222931 37 0 0.0 0.0 0.00 0.00 0.00 10 542.9
20240417222456 37 0 0.0 0.0 0.00 0.00 0.00 10 543.1
20240417222031 37 0 0.0 0.0 0.00 0.00 0.00 10 543.1
20240417221606 37 0 0.0 0.0 0.00 0.00 0.00 10 543.1
20240417221126 38 0 0.0 0.0 0.00 0.00 0.00 10 543.1
20240417220656 38 0 0.0 0.0 0.00 0.00 0.00 10 543.1
20240417220241 39 0 0.0 0.0 0.00 0.00 0.00 10 543.3
20240417215816 39 0 0.0 0.0 0.00 0.00 0.00 10 543.1
20240417215346 40 0 0.0 0.0 0.00 0.00 0.00 10 543.0
20240417214921 40 0 0.0 0.0 0.00 0.00 0.00 10 543.2
20240417214426 41 0 0.0 0.0 0.00 0.00 0.00 10 543.2
20240417213951 41 0 0.0 0.0 0.00 0.00 0.00 10 543.1
20240417213506 41 0 0.0 0.0 0.00 0.00 0.00 10 543.0
20240417213036 41 0 0.0 0.0 0.00 0.00 0.00 10 542.9
20240417212606 41 0 0.0 0.0 0.00 0.00 0.00 10 543.0
20240417212136 41 0 0.0 0.0 0.00 0.00 0.00 10 543.1
20240417211716 41 0 0.0 0.0 0.00 0.00 0.00 10 543.1
20240417211246 41 0 0.0 0.0 0.00 0.00 0.00 10 543.2
20240417210826 41 0 0.0 0.0 0.00 0.00 0.00 10 543.2
20240417210346 41 0 0.0 0.0 0.00 0.00 0.00 10 543.2
20240417205926 41 0 0.0 0.0 0.00 0.00 0.00 10 543.1
20240417205506 41 0 0.0 0.0 0.00 0.00 0.00 10 543.1
20240417205101 41 0 0.0 0.0 0.00 0.00 0.00 10 543.1
20240417204616 40 0 0.0 0.0 0.00 0.00 0.00 10 543.1
20240417204146 40 0 0.0 0.0 0.00 0.00 0.00 10 543.2
20240417203701 40 0 0.0 0.0 0.00 0.00 0.00 10 543.0
20240417203246 40 0 0.0 0.0 0.00 0.00 0.00 10 543.1
20240417202756 40 0 0.0 0.0 0.00 0.00 0.00 10 543.2
20240417202316 40 0 0.0 0.0 0.00 0.00 0.00 10 543.2
20240417201847 41 0 0.0 0.0 0.00 0.00 0.00 10 543.1
20240417201407 41 0 0.0 0.0 0.00 0.00 0.00 10 543.1
20240417200946 41 0 0.0 0.0 0.00 0.00 0.00 10 543.0
20240417200506 41 0 0.0 0.0 0.00 0.00 0.00 10 543.1
20240417200031 41 0 0.0 0.0 0.00 0.00 0.00 10 543.0
20240417195606 41 0 0.0 0.0 0.00 0.00 0.00 10 543.3
20240417195116 41 0 0.0 0.0 0.00 0.00 0.00 10 543.1
20240417194656 41 0 0.0 0.0 0.00 0.00 0.00 10 543.0
20240417194246 41 0 0.0 0.0 0.00 0.00 0.00 10 543.0
20240417193807 41 0 0.0 0.0 0.00 0.00 0.00 10 543.1
20240417193346 41 0 0.0 0.0 0.00 0.00 0.00 10 543.1
20240417192858 41 0 0.0 0.0 0.00 0.00 0.00 10 543.1
20240417192456 41 0 0.0 0.0 0.00 0.00 0.00 10 543.1
20240417192026 41 0 0.0 0.0 0.00 0.00 0.00 10 543.1
20240417191551 41 0 0.0 0.0 0.00 0.00 0.00 10 543.0
20240417191051 41 0 0.0 0.0 0.00 0.00 0.00 10 543.0
20240417190631 41 0 0.0 0.0 0.00 0.00 0.00 10 543.1
20240417190211 41 0 0.0 0.0 0.00 0.00 0.00 10 543.0
20240417185721 41 0 0.0 0.0 0.00 0.00 0.00 10 543.1
20240417185236 41 0 0.0 0.0 0.00 0.00 0.00 10 543.1
20240417184756 41 0 0.0 0.0 0.00 0.00 0.00 10 543.1
20240417184311 41 0 0.0 0.0 0.00 0.00 0.00 10 543.3
20240417183856 41 0 0.0 0.0 0.00 0.00 0.00 10 543.2
20240417183426 41 0 0.0 0.0 0.00 0.00 0.00 10 543.2
20240417183006 41 0 0.0 0.0 0.00 0.00 0.00 10 542.9
20240417182546 41 0 0.0 0.0 0.00 0.00 0.00 10 543.1
20240417182056 41 0 0.0 0.0 0.00 0.00 0.00 10 543.1
20240417181631 41 0 0.0 0.0 0.00 0.00 0.00 10 543.1
20240417181211 42 0 0.0 0.0 0.00 0.00 0.00 10 543.0
20240417180746 42 0 0.0 0.0 0.00 0.00 0.00 10 543.0